Aérodrome :
LOGIN :

S'inscrire | Disclaimer

   EN    FR    IT 

 










Légende :    VFR   VFR Marginal   IFR   IFR Intensif   IFR Très Intensif
Visi : 
Plafond : 
>= 8 km
>= 3000ft
5 à 8 km
1000 à 3000 ft
1500m à 5 km
500 à 1000 ft
800 à 1500m
200 à 500 ft
< 800m
< 200 ft
Symboles :   Orages  Brouillard  Fortes neiges  Fortes précipitations  Vent > 20 kt
SIGMETs :   Divers  Orages  Givrage  Turbulence  Onde Orograph.  Cendres Volcan.







- Altitude de l'aérodrome : 330 ft
- Code IATA : LVA
- Voir les cartes d'approche


LFOV - Laval-Entrammes

DERNIER METAR :
  • 151200Z AUTO 29013KT 260V320 9999 FEW017 BKN022 BKN029 08/05 Q1000

METARs EXPIRÉS :
  • 151130Z AUTO 27012KT 240V300 9000 -RA BKN025 BKN038 BKN050 07/05 Q0999
  • 151100Z AUTO 26010KT 9999 FEW016 BKN200 06/04 Q1000
  • 151030Z AUTO 27007KT 240V300 9999 FEW034 SCT043 BKN058 06/04 Q1000
  • 151000Z AUTO 26011KT 220V290 9999 -RA FEW020 SCT033 BKN044 06/04 Q1000
  • 150930Z AUTO 25013KT 210V280 CAVOK 06/03 Q1000

TAF N/A
Pas de NOTAMs connus pour ce terrain.



MET'MAP, la Météo Aéronautique d'un coup d'oeil ! - Copyright ORBIFLY Décembre 2007 - Disclaimer

ORBIFLY MET'MAP TEAM :

Programmation & Développement : Alexandra Zaïnal
Conception & Développement : Baudouin d'Aumeries
Co-Programmation & Développement : Marc-Olivier Méhu
Soutien technique & logistique : Manuel Goepfert

Contact : metmap@orbifly.com




SOURCES & CREDITS :

   NOAA